Weather History for Silver City, NM

Change the Weather History Date:

Friday, January 4, 2013

  Actual Average (KDMN) Record (KDMN)
Temperature  
Mean Temperature 23 °F 40 °F  
Max Temperature 32 °F 55 °F 68 °F (2006)
Min Temperature 14 °F 25 °F 8 °F (1967)
Degree Days  
Heating Degree Days 42    
Moisture  
Dew Point 22 °F    
Average Humidity 87    
Maximum Humidity 100    
Minimum Humidity 69    
Precipitation  
Precipitation 0.00 in 0.02 in 0.58 in (1957)
Month to date precipitation 0.07  
Year to date precipitation 0.07  
Sea Level Pressure  
Sea Level Pressure 30.26 in    
Wind  
Wind Speed 5 mph (SSW)    
Max Wind Speed 9 mph    
Max Gust Speed -    
Visibility 7 miles    
Events Fog , Snow    
T = Trace of Precipitation, MM = Missing Value Source: NWS Daily Summary

Daily Weather History Graph

Daily Weather History Graph

Search for Another Location

Airport:

Trip Planner

Search our weather history database for the weather conditions in past years. The results will help you decide how hot, cold, wet, or windy it might be!

Date:

Astronomy

Jan. 04, 2013 Rise Set
Actual Time 7:15 AM MST 5:20 PM MST
Civil Twilight 6:48 AM MST 5:47 PM MST
Nautical Twilight 6:17 AM MST 6:18 PM MST
Astronomical Twilight 5:47 AM MST 6:48 PM MST
Moon No Moon Rise 11:25 AM MST (1/4)
Length of Visible Light 10h 59m
Length of Day
10h 05m
Waning Gibbous, 54% of the Moon is Illuminated
Jan 4
Waning Gibbous
Jan 4
Last Quarter
Jan 11
New
Jan 18
First Quarter
Jan 26
Full

Hourly Weather History & Observations

Time (MST) Temp. Windchill Dew Point Humidity Pressure Visibility Wind Dir Wind Speed Gust Speed Precip Events Conditions
12:15 AM 26.6 °F 17.5 °F 24.8 °F 93% 30.26 in 3.0 mi SSE 9.2 mph - N/A   Overcast
12:35 AM 26.6 °F 17.5 °F 24.8 °F 93% 30.26 in 2.5 mi SSE 9.2 mph - N/A   Overcast
12:55 AM 24.8 °F 16.1 °F 24.8 °F 100% 30.26 in 3.0 mi SSE 8.1 mph - N/A   Overcast
1:15 AM 24.8 °F 16.1 °F 24.8 °F 100% 30.26 in 2.0 mi SSE 8.1 mph - N/A   Overcast
1:35 AM 24.8 °F 16.1 °F 24.8 °F 100% 30.26 in 0.5 mi SSE 8.1 mph - N/A Fog Light Freezing Fog
1:55 AM 24.8 °F 16.1 °F 24.8 °F 100% 30.26 in 0.5 mi SSE 8.1 mph - N/A Fog Light Freezing Fog
2:15 AM 24.8 °F 17.9 °F 23.0 °F 93% 30.26 in 0.5 mi SSE 5.8 mph - N/A Fog Light Freezing Fog
5:15 AM 24.8 °F 19.1 °F 23.0 °F 93% 30.25 in 0.5 mi South 4.6 mph - N/A Snow Snow
5:35 AM 24.8 °F 20.5 °F 23.0 °F 93% 30.26 in 0.2 mi South 3.5 mph - N/A Fog Light Freezing Fog
5:55 AM 24.8 °F 20.5 °F 23.0 °F 93% 30.26 in 0.2 mi SSE 3.5 mph - N/A Fog Light Freezing Fog
6:15 AM 24.8 °F - 23.0 °F 93% 30.26 in 0.2 mi Calm Calm - N/A Snow Heavy Snow
6:35 AM 24.8 °F 20.5 °F 23.0 °F 93% 30.26 in 0.5 mi SE 3.5 mph - N/A Snow Snow
6:55 AM 24.8 °F - 23.0 °F 93% 30.27 in 0.5 mi Calm Calm - N/A Snow Snow
7:15 AM 24.8 °F - 23.0 °F 93% 30.27 in 0.5 mi Calm Calm - N/A Snow Snow
7:55 AM 24.8 °F - 23.0 °F 93% 30.28 in 2.5 mi Calm Calm - N/A Snow Light Snow
8:15 AM 24.8 °F 20.5 °F 23.0 °F 93% 30.29 in 3.0 mi WSW 3.5 mph - N/A Snow Light Snow
8:35 AM 24.8 °F - 24.8 °F 100% 30.29 in 3.0 mi Calm Calm - N/A Snow Light Snow
8:55 AM 24.8 °F 20.5 °F 24.8 °F 100% 30.31 in 5.0 mi SW 3.5 mph - N/A Snow Light Snow
9:15 AM 24.8 °F 20.5 °F 24.8 °F 100% 30.31 in 5.0 mi SW 3.5 mph - N/A Snow Light Snow
9:35 AM 26.6 °F 22.6 °F 24.8 °F 93% 30.31 in 4.0 mi SW 3.5 mph - N/A Snow Light Snow
9:55 AM 26.6 °F - 24.8 °F 93% 30.32 in 5.0 mi Calm Calm - N/A Snow Light Snow
10:15 AM 26.6 °F - 24.8 °F 93% 30.32 in 7.0 mi Calm Calm - N/A Snow Light Snow
10:35 AM 26.6 °F - 24.8 °F 93% 30.31 in 9.0 mi Calm Calm - N/A   Overcast
10:55 AM 26.6 °F - 26.6 °F 100% 30.31 in 5.0 mi Calm Calm - N/A Snow Light Snow
11:15 AM 28.4 °F - 26.6 °F 93% 30.30 in 7.0 mi Calm Calm - N/A Snow Light Snow
11:35 AM 28.4 °F - 24.8 °F 86% 30.29 in 8.0 mi Calm Calm - N/A   Overcast
11:55 AM 30.2 °F - 24.8 °F 80% 30.28 in 10.0 mi Calm Calm - N/A   Overcast
12:15 PM 30.2 °F 24.3 °F 24.8 °F 80% 30.27 in 10.0 mi SSW 5.8 mph - N/A   Overcast
12:35 PM 30.2 °F 25.4 °F 23.0 °F 75% 30.26 in 10.0 mi South 4.6 mph - N/A   Overcast
12:55 PM 30.2 °F 25.4 °F 24.8 °F 80% 30.25 in 10.0 mi South 4.6 mph - N/A   Overcast
1:15 PM 30.2 °F 25.4 °F 23.0 °F 75% 30.24 in 10.0 mi SW 4.6 mph - N/A   Overcast
1:35 PM 30.2 °F 23.4 °F 23.0 °F 75% 30.24 in 10.0 mi SSW 6.9 mph - N/A   Overcast
1:55 PM 32.0 °F 24.8 °F 23.0 °F 69% 30.23 in 10.0 mi SSW 8.1 mph - N/A   Overcast
2:15 PM 32.0 °F - 23.0 °F 69% 30.23 in 10.0 mi Calm Calm - N/A   Mostly Cloudy
2:35 PM 32.0 °F 27.5 °F 23.0 °F 69% 30.22 in 10.0 mi South 4.6 mph - N/A   Clear
2:55 PM 32.0 °F 26.4 °F 23.0 °F 69% 30.22 in 10.0 mi South 5.8 mph - N/A   Clear
3:15 PM 32.0 °F 26.4 °F 23.0 °F 69% 30.22 in 10.0 mi SW 5.8 mph - N/A   Clear
3:35 PM 32.0 °F 27.5 °F 23.0 °F 69% 30.22 in 10.0 mi South 4.6 mph - N/A   Clear
3:55 PM 32.0 °F 25.6 °F 23.0 °F 69% 30.22 in 10.0 mi South 6.9 mph - N/A   Clear
4:15 PM 32.0 °F 25.6 °F 23.0 °F 69% 30.23 in 10.0 mi South 6.9 mph - N/A   Clear
4:35 PM 32.0 °F 24.2 °F 23.0 °F 69% 30.23 in 10.0 mi South 9.2 mph - N/A   Clear
4:55 PM 32.0 °F 24.8 °F 23.0 °F 69% 30.23 in 10.0 mi South 8.1 mph - N/A   Clear
5:15 PM 30.2 °F 22.6 °F 23.0 °F 75% 30.23 in 10.0 mi SSE 8.1 mph - N/A   Partly Cloudy
5:35 PM 28.4 °F 21.2 °F 23.0 °F 80% 30.24 in 10.0 mi SSE 6.9 mph - N/A   Partly Cloudy
5:55 PM 26.6 °F 20.0 °F 21.2 °F 80% 30.24 in 10.0 mi SE 5.8 mph - N/A   Clear
6:15 PM 26.6 °F 22.6 °F 21.2 °F 80% 30.26 in 10.0 mi SSE 3.5 mph - N/A   Clear
6:35 PM 24.8 °F - 21.2 °F 86% 30.26 in 10.0 mi Calm Calm - N/A   Partly Cloudy
6:55 PM 26.6 °F - 21.2 °F 80% 30.26 in 10.0 mi Calm Calm - N/A   Scattered Clouds
7:15 PM 24.8 °F - 19.4 °F 80% 30.27 in 10.0 mi Calm Calm - N/A   Partly Cloudy
7:35 PM 23.0 °F - 19.4 °F 86% 30.27 in 10.0 mi Calm Calm - N/A   Clear
7:55 PM 19.4 °F - 17.6 °F 93% 30.27 in 10.0 mi Calm Calm - N/A   Mostly Cloudy
8:15 PM 21.2 °F - 17.6 °F 86% 30.27 in 10.0 mi Calm Calm - N/A   Mostly Cloudy
8:55 PM 17.6 °F 9.3 °F 15.8 °F 93% 30.27 in 10.0 mi North 5.8 mph - N/A   Clear
9:15 PM 17.6 °F 9.3 °F 15.8 °F 93% 30.28 in 10.0 mi NNW 5.8 mph - N/A   Scattered Clouds
9:35 PM 15.8 °F 6.1 °F 14.0 °F 93% 30.28 in 10.0 mi NNW 6.9 mph - N/A   Scattered Clouds
9:55 PM 15.8 °F 6.1 °F 14.0 °F 93% 30.28 in 10.0 mi NNW 6.9 mph - N/A   Clear
10:15 PM 17.6 °F 9.3 °F 15.8 °F 93% 30.28 in 10.0 mi North 5.8 mph - N/A   Clear
10:35 PM 15.8 °F 10.2 °F 14.0 °F 93% 30.28 in 10.0 mi NW 3.5 mph - N/A   Clear
10:55 PM 15.8 °F 8.6 °F 14.0 °F 93% 30.28 in 10.0 mi WNW 4.6 mph - N/A   Clear
11:15 PM 14.0 °F 5.1 °F 12.2 °F 93% 30.28 in 10.0 mi WNW 5.8 mph - N/A   Clear
11:35 PM 14.0 °F 2.9 °F 10.4 °F 86% 30.28 in 10.0 mi NW 8.1 mph - N/A   Clear
11:55 PM 15.8 °F 6.1 °F 12.2 °F 86% 30.27 in 10.0 mi NNW 6.9 mph - N/A   Clear